Index of /20260411/WXO-DD/model_gdps/15km/00/039
Name Last modified Size Description
Parent Directory -
20260411T00Z_MSC_GDPS_AbsoluteVorticity_IsbL-0200_LatLon0.15_PT039H.grib2 2026-04-11 04:20 1.2M
20260411T00Z_MSC_GDPS_AbsoluteVorticity_IsbL-0250_LatLon0.15_PT039H.grib2 2026-04-11 04:20 1.3M
20260411T00Z_MSC_GDPS_AbsoluteVorticity_IsbL-0500_LatLon0.15_PT039H.grib2 2026-04-11 04:20 1.2M
20260411T00Z_MSC_GDPS_AbsoluteVorticity_IsbL-0700_LatLon0.15_PT039H.grib2 2026-04-11 04:20 1.3M
20260411T00Z_MSC_GDPS_AbsoluteVorticity_IsbL-0850_LatLon0.15_PT039H.grib2 2026-04-11 04:20 1.6M
20260411T00Z_MSC_GDPS_AirTemp_AGL-120m_LatLon0.15_PT039H.grib2 2026-04-11 04:20 901K
20260411T00Z_MSC_GDPS_AirTemp_AGL-2m_LatLon0.15_PT039H.grib2 2026-04-11 04:20 1.0M
20260411T00Z_MSC_GDPS_AirTemp_AGL-40m_LatLon0.15_PT039H.grib2 2026-04-11 04:20 922K
20260411T00Z_MSC_GDPS_AirTemp_AGL-80m_LatLon0.15_PT039H.grib2 2026-04-11 04:20 911K
20260411T00Z_MSC_GDPS_AirTemp_IsbL-0001_LatLon0.15_PT039H.grib2 2026-04-11 04:20 704K
20260411T00Z_MSC_GDPS_AirTemp_IsbL-0005_LatLon0.15_PT039H.grib2 2026-04-11 04:20 683K
20260411T00Z_MSC_GDPS_AirTemp_IsbL-0010_LatLon0.15_PT039H.grib2 2026-04-11 04:20 761K
20260411T00Z_MSC_GDPS_AirTemp_IsbL-0020_LatLon0.15_PT039H.grib2 2026-04-11 04:20 707K
20260411T00Z_MSC_GDPS_AirTemp_IsbL-0030_LatLon0.15_PT039H.grib2 2026-04-11 04:20 755K
20260411T00Z_MSC_GDPS_AirTemp_IsbL-0050_LatLon0.15_PT039H.grib2 2026-04-11 04:20 818K
20260411T00Z_MSC_GDPS_AirTemp_IsbL-0100_LatLon0.15_PT039H.grib2 2026-04-11 04:20 953K
20260411T00Z_MSC_GDPS_AirTemp_IsbL-0150_LatLon0.15_PT039H.grib2 2026-04-11 04:20 972K
20260411T00Z_MSC_GDPS_AirTemp_IsbL-0175_LatLon0.15_PT039H.grib2 2026-04-11 04:20 962K
20260411T00Z_MSC_GDPS_AirTemp_IsbL-0200_LatLon0.15_PT039H.grib2 2026-04-11 04:20 1.0M
20260411T00Z_MSC_GDPS_AirTemp_IsbL-0225_LatLon0.15_PT039H.grib2 2026-04-11 04:20 1.0M
20260411T00Z_MSC_GDPS_AirTemp_IsbL-0250_LatLon0.15_PT039H.grib2 2026-04-11 04:20 1.0M
20260411T00Z_MSC_GDPS_AirTemp_IsbL-0275_LatLon0.15_PT039H.grib2 2026-04-11 04:20 1.0M
20260411T00Z_MSC_GDPS_AirTemp_IsbL-0300_LatLon0.15_PT039H.grib2 2026-04-11 04:20 955K
20260411T00Z_MSC_GDPS_AirTemp_IsbL-0350_LatLon0.15_PT039H.grib2 2026-04-11 04:20 931K
20260411T00Z_MSC_GDPS_AirTemp_IsbL-0400_LatLon0.15_PT039H.grib2 2026-04-11 04:20 945K
20260411T00Z_MSC_GDPS_AirTemp_IsbL-0450_LatLon0.15_PT039H.grib2 2026-04-11 04:20 968K
20260411T00Z_MSC_GDPS_AirTemp_IsbL-0500_LatLon0.15_PT039H.grib2 2026-04-11 04:20 1.0M
20260411T00Z_MSC_GDPS_AirTemp_IsbL-0550_LatLon0.15_PT039H.grib2 2026-04-11 04:20 805K
20260411T00Z_MSC_GDPS_AirTemp_IsbL-0600_LatLon0.15_PT039H.grib2 2026-04-11 04:20 898K
20260411T00Z_MSC_GDPS_AirTemp_IsbL-0650_LatLon0.15_PT039H.grib2 2026-04-11 04:20 925K
20260411T00Z_MSC_GDPS_AirTemp_IsbL-0700_LatLon0.15_PT039H.grib2 2026-04-11 04:20 957K
20260411T00Z_MSC_GDPS_AirTemp_IsbL-0750_LatLon0.15_PT039H.grib2 2026-04-11 04:20 1.0M
20260411T00Z_MSC_GDPS_AirTemp_IsbL-0800_LatLon0.15_PT039H.grib2 2026-04-11 04:20 1.1M
20260411T00Z_MSC_GDPS_AirTemp_IsbL-0850_LatLon0.15_PT039H.grib2 2026-04-11 04:20 1.1M
20260411T00Z_MSC_GDPS_AirTemp_IsbL-0875_LatLon0.15_PT039H.grib2 2026-04-11 04:20 1.1M
20260411T00Z_MSC_GDPS_AirTemp_IsbL-0900_LatLon0.15_PT039H.grib2 2026-04-11 04:20 1.1M
20260411T00Z_MSC_GDPS_AirTemp_IsbL-0925_LatLon0.15_PT039H.grib2 2026-04-11 04:20 1.1M
20260411T00Z_MSC_GDPS_AirTemp_IsbL-0950_LatLon0.15_PT039H.grib2 2026-04-11 04:20 1.1M
20260411T00Z_MSC_GDPS_AirTemp_IsbL-0970_LatLon0.15_PT039H.grib2 2026-04-11 04:20 1.1M
20260411T00Z_MSC_GDPS_AirTemp_IsbL-0985_LatLon0.15_PT039H.grib2 2026-04-11 04:20 1.1M
20260411T00Z_MSC_GDPS_AirTemp_IsbL-1000_LatLon0.15_PT039H.grib2 2026-04-11 04:20 1.1M
20260411T00Z_MSC_GDPS_AirTemp_IsbL-1015_LatLon0.15_PT039H.grib2 2026-04-11 04:20 1.1M
20260411T00Z_MSC_GDPS_Albedo_Sfc_LatLon0.15_PT039H.grib2 2026-04-11 04:20 247K
20260411T00Z_MSC_GDPS_CAPE_Sfc_LatLon0.15_PT039H.grib2 2026-04-11 04:20 3.7M
20260411T00Z_MSC_GDPS_CIN_Sfc_LatLon0.15_PT039H.grib2 2026-04-11 04:20 2.9M
20260411T00Z_MSC_GDPS_CloudWater_EAtm_LatLon0.15_PT039H.grib2 2026-04-11 04:20 531K
20260411T00Z_MSC_GDPS_ConvectivePrecip-Accum_Sfc_LatLon0.15_PT039H.grib2 2026-04-11 04:20 2.6M
20260411T00Z_MSC_GDPS_DewPointDepression_AGL-2m_LatLon0.15_PT039H.grib2 2026-04-11 04:20 748K
20260411T00Z_MSC_GDPS_DewPointDepression_IsbL-0010_LatLon0.15_PT039H.grib2 2026-04-11 04:20 1.6K
20260411T00Z_MSC_GDPS_DewPointDepression_IsbL-0020_LatLon0.15_PT039H.grib2 2026-04-11 04:20 65K
20260411T00Z_MSC_GDPS_DewPointDepression_IsbL-0030_LatLon0.15_PT039H.grib2 2026-04-11 04:20 66K
20260411T00Z_MSC_GDPS_DewPointDepression_IsbL-0050_LatLon0.15_PT039H.grib2 2026-04-11 04:20 352K
20260411T00Z_MSC_GDPS_DewPointDepression_IsbL-0100_LatLon0.15_PT039H.grib2 2026-04-11 04:20 367K
20260411T00Z_MSC_GDPS_DewPointDepression_IsbL-0150_LatLon0.15_PT039H.grib2 2026-04-11 04:20 441K
20260411T00Z_MSC_GDPS_DewPointDepression_IsbL-0175_LatLon0.15_PT039H.grib2 2026-04-11 04:20 509K
20260411T00Z_MSC_GDPS_DewPointDepression_IsbL-0200_LatLon0.15_PT039H.grib2 2026-04-11 04:20 620K
20260411T00Z_MSC_GDPS_DewPointDepression_IsbL-0225_LatLon0.15_PT039H.grib2 2026-04-11 04:20 751K
20260411T00Z_MSC_GDPS_DewPointDepression_IsbL-0250_LatLon0.15_PT039H.grib2 2026-04-11 04:20 861K
20260411T00Z_MSC_GDPS_DewPointDepression_IsbL-0275_LatLon0.15_PT039H.grib2 2026-04-11 04:20 890K
20260411T00Z_MSC_GDPS_DewPointDepression_IsbL-0300_LatLon0.15_PT039H.grib2 2026-04-11 04:20 937K
20260411T00Z_MSC_GDPS_DewPointDepression_IsbL-0350_LatLon0.15_PT039H.grib2 2026-04-11 04:20 957K
20260411T00Z_MSC_GDPS_DewPointDepression_IsbL-0400_LatLon0.15_PT039H.grib2 2026-04-11 04:20 1.0M
20260411T00Z_MSC_GDPS_DewPointDepression_IsbL-0450_LatLon0.15_PT039H.grib2 2026-04-11 04:20 1.0M
20260411T00Z_MSC_GDPS_DewPointDepression_IsbL-0500_LatLon0.15_PT039H.grib2 2026-04-11 04:20 1.0M
20260411T00Z_MSC_GDPS_DewPointDepression_IsbL-0550_LatLon0.15_PT039H.grib2 2026-04-11 04:20 1.0M
20260411T00Z_MSC_GDPS_DewPointDepression_IsbL-0600_LatLon0.15_PT039H.grib2 2026-04-11 04:20 1.0M
20260411T00Z_MSC_GDPS_DewPointDepression_IsbL-0650_LatLon0.15_PT039H.grib2 2026-04-11 04:20 1.1M
20260411T00Z_MSC_GDPS_DewPointDepression_IsbL-0700_LatLon0.15_PT039H.grib2 2026-04-11 04:20 1.1M
20260411T00Z_MSC_GDPS_DewPointDepression_IsbL-0750_LatLon0.15_PT039H.grib2 2026-04-11 04:20 1.1M
20260411T00Z_MSC_GDPS_DewPointDepression_IsbL-0800_LatLon0.15_PT039H.grib2 2026-04-11 04:20 1.2M
20260411T00Z_MSC_GDPS_DewPointDepression_IsbL-0850_LatLon0.15_PT039H.grib2 2026-04-11 04:20 1.2M
20260411T00Z_MSC_GDPS_DewPointDepression_IsbL-0875_LatLon0.15_PT039H.grib2 2026-04-11 04:20 1.1M
20260411T00Z_MSC_GDPS_DewPointDepression_IsbL-0900_LatLon0.15_PT039H.grib2 2026-04-11 04:20 1.1M
20260411T00Z_MSC_GDPS_DewPointDepression_IsbL-0925_LatLon0.15_PT039H.grib2 2026-04-11 04:20 1.0M
20260411T00Z_MSC_GDPS_DewPointDepression_IsbL-0950_LatLon0.15_PT039H.grib2 2026-04-11 04:20 1.0M
20260411T00Z_MSC_GDPS_DewPointDepression_IsbL-0970_LatLon0.15_PT039H.grib2 2026-04-11 04:20 1.0M
20260411T00Z_MSC_GDPS_DewPointDepression_IsbL-0985_LatLon0.15_PT039H.grib2 2026-04-11 04:20 1.0M
20260411T00Z_MSC_GDPS_DewPointDepression_IsbL-1000_LatLon0.15_PT039H.grib2 2026-04-11 04:20 969K
20260411T00Z_MSC_GDPS_DewPointDepression_IsbL-1015_LatLon0.15_PT039H.grib2 2026-04-11 04:20 907K
20260411T00Z_MSC_GDPS_DewPoint_AGL-2m_LatLon0.15_PT039H.grib2 2026-04-11 04:20 612K
20260411T00Z_MSC_GDPS_DownwardLongwaveRadiationFlux-Accum_Sfc_LatLon0.15_PT039H.grib2 2026-04-11 04:20 737K
20260411T00Z_MSC_GDPS_DownwardShortwaveRadiationFlux-Accum_NTAtm_LatLon0.15_PT039H.grib2 2026-04-11 04:20 327K
20260411T00Z_MSC_GDPS_DownwardShortwaveRadiationFlux-Accum_Sfc_LatLon0.15_PT039H.grib2 2026-04-11 04:20 1.0M
20260411T00Z_MSC_GDPS_FreezingRain-Accum1h_Sfc_LatLon0.15_PT039H.grib2 2026-04-11 04:20 28K
20260411T00Z_MSC_GDPS_FreezingRain-Accum3h_Sfc_LatLon0.15_PT039H.grib2 2026-04-11 04:20 34K
20260411T00Z_MSC_GDPS_FreezingRain-Accum_Sfc_LatLon0.15_PT039H.grib2 2026-04-11 04:20 139K
20260411T00Z_MSC_GDPS_GeopotentialHeight_IsbL-0001_LatLon0.15_PT039H.grib2 2026-04-11 04:20 536K
20260411T00Z_MSC_GDPS_GeopotentialHeight_IsbL-0005_LatLon0.15_PT039H.grib2 2026-04-11 04:20 441K
20260411T00Z_MSC_GDPS_GeopotentialHeight_IsbL-0010_LatLon0.15_PT039H.grib2 2026-04-11 04:20 579K
20260411T00Z_MSC_GDPS_GeopotentialHeight_IsbL-0020_LatLon0.15_PT039H.grib2 2026-04-11 04:20 581K
20260411T00Z_MSC_GDPS_GeopotentialHeight_IsbL-0030_LatLon0.15_PT039H.grib2 2026-04-11 04:20 586K
20260411T00Z_MSC_GDPS_GeopotentialHeight_IsbL-0050_LatLon0.15_PT039H.grib2 2026-04-11 04:20 517K
20260411T00Z_MSC_GDPS_GeopotentialHeight_IsbL-0100_LatLon0.15_PT039H.grib2 2026-04-11 04:20 621K
20260411T00Z_MSC_GDPS_GeopotentialHeight_IsbL-0150_LatLon0.15_PT039H.grib2 2026-04-11 04:20 639K
20260411T00Z_MSC_GDPS_GeopotentialHeight_IsbL-0175_LatLon0.15_PT039H.grib2 2026-04-11 04:20 641K
20260411T00Z_MSC_GDPS_GeopotentialHeight_IsbL-0200_LatLon0.15_PT039H.grib2 2026-04-11 04:20 644K
20260411T00Z_MSC_GDPS_GeopotentialHeight_IsbL-0225_LatLon0.15_PT039H.grib2 2026-04-11 04:20 648K
20260411T00Z_MSC_GDPS_GeopotentialHeight_IsbL-0250_LatLon0.15_PT039H.grib2 2026-04-11 04:20 650K
20260411T00Z_MSC_GDPS_GeopotentialHeight_IsbL-0275_LatLon0.15_PT039H.grib2 2026-04-11 04:20 647K
20260411T00Z_MSC_GDPS_GeopotentialHeight_IsbL-0300_LatLon0.15_PT039H.grib2 2026-04-11 04:20 644K
20260411T00Z_MSC_GDPS_GeopotentialHeight_IsbL-0350_LatLon0.15_PT039H.grib2 2026-04-11 04:20 634K
20260411T00Z_MSC_GDPS_GeopotentialHeight_IsbL-0400_LatLon0.15_PT039H.grib2 2026-04-11 04:20 623K
20260411T00Z_MSC_GDPS_GeopotentialHeight_IsbL-0450_LatLon0.15_PT039H.grib2 2026-04-11 04:20 543K
20260411T00Z_MSC_GDPS_GeopotentialHeight_IsbL-0500_LatLon0.15_PT039H.grib2 2026-04-11 04:20 532K
20260411T00Z_MSC_GDPS_GeopotentialHeight_IsbL-0550_LatLon0.15_PT039H.grib2 2026-04-11 04:20 695K
20260411T00Z_MSC_GDPS_GeopotentialHeight_IsbL-0600_LatLon0.15_PT039H.grib2 2026-04-11 04:20 692K
20260411T00Z_MSC_GDPS_GeopotentialHeight_IsbL-0650_LatLon0.15_PT039H.grib2 2026-04-11 04:20 690K
20260411T00Z_MSC_GDPS_GeopotentialHeight_IsbL-0700_LatLon0.15_PT039H.grib2 2026-04-11 04:20 687K
20260411T00Z_MSC_GDPS_GeopotentialHeight_IsbL-0750_LatLon0.15_PT039H.grib2 2026-04-11 04:20 691K
20260411T00Z_MSC_GDPS_GeopotentialHeight_IsbL-0800_LatLon0.15_PT039H.grib2 2026-04-11 04:20 705K
20260411T00Z_MSC_GDPS_GeopotentialHeight_IsbL-0850_LatLon0.15_PT039H.grib2 2026-04-11 04:20 711K
20260411T00Z_MSC_GDPS_GeopotentialHeight_IsbL-0875_LatLon0.15_PT039H.grib2 2026-04-11 04:20 715K
20260411T00Z_MSC_GDPS_GeopotentialHeight_IsbL-0900_LatLon0.15_PT039H.grib2 2026-04-11 04:20 725K
20260411T00Z_MSC_GDPS_GeopotentialHeight_IsbL-0925_LatLon0.15_PT039H.grib2 2026-04-11 04:20 730K
20260411T00Z_MSC_GDPS_GeopotentialHeight_IsbL-0950_LatLon0.15_PT039H.grib2 2026-04-11 04:20 738K
20260411T00Z_MSC_GDPS_GeopotentialHeight_IsbL-0970_LatLon0.15_PT039H.grib2 2026-04-11 04:20 748K
20260411T00Z_MSC_GDPS_GeopotentialHeight_IsbL-0985_LatLon0.15_PT039H.grib2 2026-04-11 04:20 764K
20260411T00Z_MSC_GDPS_GeopotentialHeight_IsbL-1000_LatLon0.15_PT039H.grib2 2026-04-11 04:20 784K
20260411T00Z_MSC_GDPS_GeopotentialHeight_IsbL-1015_LatLon0.15_PT039H.grib2 2026-04-11 04:20 805K
20260411T00Z_MSC_GDPS_Humidex_Sfc_LatLon0.15_PT039H.grib2 2026-04-11 04:20 5.3M
20260411T00Z_MSC_GDPS_IcePellets-Accum1h_Sfc_LatLon0.15_PT039H.grib2 2026-04-11 04:20 8.4K
20260411T00Z_MSC_GDPS_IcePellets-Accum3h_Sfc_LatLon0.15_PT039H.grib2 2026-04-11 04:20 11K
20260411T00Z_MSC_GDPS_IcePellets-Accum_Sfc_LatLon0.15_PT039H.grib2 2026-04-11 04:20 59K
20260411T00Z_MSC_GDPS_KIndex_Sfc_LatLon0.15_PT039H.grib2 2026-04-11 04:20 6.4M
20260411T00Z_MSC_GDPS_LatentHeatNetFlux_Sfc_LatLon0.15_PT039H.grib2 2026-04-11 04:20 688K
20260411T00Z_MSC_GDPS_LiftedIndex-MU-VT_IsbL-0500_LatLon0.15_PT039H.grib2 2026-04-11 04:20 5.4M
20260411T00Z_MSC_GDPS_NetLongwaveRadiationFlux-Accum_Sfc_LatLon0.15_PT039H.grib2 2026-04-11 04:20 1.0M
20260411T00Z_MSC_GDPS_NetShortwaveRadiationFlux-Accum_Sfc_LatLon0.15_PT039H.grib2 2026-04-11 04:20 960K
20260411T00Z_MSC_GDPS_O3MixingRatio_LatLon0.15_PT039H.grib2 2026-04-11 05:06 2.0M
20260411T00Z_MSC_GDPS_O3_EAtm_LatLon0.15_PT039H.grib2 2026-04-11 05:06 2.1M
20260411T00Z_MSC_GDPS_PlanetaryBoundaryLayerHeight_Sfc_LatLon0.15_PT039H.grib2 2026-04-11 04:20 2.5M
20260411T00Z_MSC_GDPS_Precip-Accum1h_Sfc_LatLon0.15_PT039H.grib2 2026-04-11 04:20 3.2M
20260411T00Z_MSC_GDPS_Precip-Accum3h_Sfc_LatLon0.15_PT039H.grib2 2026-04-11 04:20 3.5M
20260411T00Z_MSC_GDPS_Precip-Accum_Sfc_LatLon0.15_PT039H.grib2 2026-04-11 04:20 4.3M
20260411T00Z_MSC_GDPS_PrecipRate_Sfc_LatLon0.15_PT039H.grib2 2026-04-11 04:20 3.0M
20260411T00Z_MSC_GDPS_PrecipType-Instant_Sfc_LatLon0.15_PT039H.grib2 2026-04-11 04:20 1.5M
20260411T00Z_MSC_GDPS_Pressure_MSL_LatLon0.15_PT039H.grib2 2026-04-11 04:20 720K
20260411T00Z_MSC_GDPS_Pressure_PVU-1.5_LatLon0.15_PT039H.grib2 2026-04-11 04:20 5.8M
20260411T00Z_MSC_GDPS_Pressure_PVU-1_LatLon0.15_PT039H.grib2 2026-04-11 04:20 6.0M
20260411T00Z_MSC_GDPS_Pressure_PVU-2_LatLon0.15_PT039H.grib2 2026-04-11 04:20 5.6M
20260411T00Z_MSC_GDPS_Pressure_Sfc_LatLon0.15_PT039H.grib2 2026-04-11 04:20 1.1M
20260411T00Z_MSC_GDPS_RadiativeTemp_Sfc_LatLon0.15_PT039H.grib2 2026-04-11 04:20 664K
20260411T00Z_MSC_GDPS_Rain-Accum1h_Sfc_LatLon0.15_PT039H.grib2 2026-04-11 04:20 1.6M
20260411T00Z_MSC_GDPS_Rain-Accum3h_Sfc_LatLon0.15_PT039H.grib2 2026-04-11 04:20 1.8M
20260411T00Z_MSC_GDPS_Rain-Accum_Sfc_LatLon0.15_PT039H.grib2 2026-04-11 04:20 3.2M
20260411T00Z_MSC_GDPS_RelativeHumidity_AGL-2m_LatLon0.15_PT039H.grib2 2026-04-11 04:20 1.0M
20260411T00Z_MSC_GDPS_RelativeHumidity_IsbL-0010_LatLon0.15_PT039H.grib2 2026-04-11 04:20 244K
20260411T00Z_MSC_GDPS_RelativeHumidity_IsbL-0020_LatLon0.15_PT039H.grib2 2026-04-11 04:20 399K
20260411T00Z_MSC_GDPS_RelativeHumidity_IsbL-0030_LatLon0.15_PT039H.grib2 2026-04-11 04:20 533K
20260411T00Z_MSC_GDPS_RelativeHumidity_IsbL-0050_LatLon0.15_PT039H.grib2 2026-04-11 04:20 326K
20260411T00Z_MSC_GDPS_RelativeHumidity_IsbL-0100_LatLon0.15_PT039H.grib2 2026-04-11 04:20 495K
20260411T00Z_MSC_GDPS_RelativeHumidity_IsbL-0150_LatLon0.15_PT039H.grib2 2026-04-11 04:20 651K
20260411T00Z_MSC_GDPS_RelativeHumidity_IsbL-0175_LatLon0.15_PT039H.grib2 2026-04-11 04:20 757K
20260411T00Z_MSC_GDPS_RelativeHumidity_IsbL-0200_LatLon0.15_PT039H.grib2 2026-04-11 04:20 671K
20260411T00Z_MSC_GDPS_RelativeHumidity_IsbL-0225_LatLon0.15_PT039H.grib2 2026-04-11 04:20 762K
20260411T00Z_MSC_GDPS_RelativeHumidity_IsbL-0250_LatLon0.15_PT039H.grib2 2026-04-11 04:20 842K
20260411T00Z_MSC_GDPS_RelativeHumidity_IsbL-0275_LatLon0.15_PT039H.grib2 2026-04-11 04:20 869K
20260411T00Z_MSC_GDPS_RelativeHumidity_IsbL-0300_LatLon0.15_PT039H.grib2 2026-04-11 04:20 919K
20260411T00Z_MSC_GDPS_RelativeHumidity_IsbL-0350_LatLon0.15_PT039H.grib2 2026-04-11 04:20 944K
20260411T00Z_MSC_GDPS_RelativeHumidity_IsbL-0400_LatLon0.15_PT039H.grib2 2026-04-11 04:20 966K
20260411T00Z_MSC_GDPS_RelativeHumidity_IsbL-0450_LatLon0.15_PT039H.grib2 2026-04-11 04:20 1.0M
20260411T00Z_MSC_GDPS_RelativeHumidity_IsbL-0500_LatLon0.15_PT039H.grib2 2026-04-11 04:20 1.0M
20260411T00Z_MSC_GDPS_RelativeHumidity_IsbL-0550_LatLon0.15_PT039H.grib2 2026-04-11 04:20 1.0M
20260411T00Z_MSC_GDPS_RelativeHumidity_IsbL-0600_LatLon0.15_PT039H.grib2 2026-04-11 04:20 1.1M
20260411T00Z_MSC_GDPS_RelativeHumidity_IsbL-0650_LatLon0.15_PT039H.grib2 2026-04-11 04:20 1.1M
20260411T00Z_MSC_GDPS_RelativeHumidity_IsbL-0700_LatLon0.15_PT039H.grib2 2026-04-11 04:20 1.1M
20260411T00Z_MSC_GDPS_RelativeHumidity_IsbL-0750_LatLon0.15_PT039H.grib2 2026-04-11 04:20 1.2M
20260411T00Z_MSC_GDPS_RelativeHumidity_IsbL-0800_LatLon0.15_PT039H.grib2 2026-04-11 04:20 1.2M
20260411T00Z_MSC_GDPS_RelativeHumidity_IsbL-0850_LatLon0.15_PT039H.grib2 2026-04-11 04:20 1.3M
20260411T00Z_MSC_GDPS_RelativeHumidity_IsbL-0875_LatLon0.15_PT039H.grib2 2026-04-11 04:20 1.3M
20260411T00Z_MSC_GDPS_RelativeHumidity_IsbL-0900_LatLon0.15_PT039H.grib2 2026-04-11 04:20 1.2M
20260411T00Z_MSC_GDPS_RelativeHumidity_IsbL-0925_LatLon0.15_PT039H.grib2 2026-04-11 04:20 1.2M
20260411T00Z_MSC_GDPS_RelativeHumidity_IsbL-0950_LatLon0.15_PT039H.grib2 2026-04-11 04:20 1.2M
20260411T00Z_MSC_GDPS_RelativeHumidity_IsbL-0970_LatLon0.15_PT039H.grib2 2026-04-11 04:20 1.2M
20260411T00Z_MSC_GDPS_RelativeHumidity_IsbL-0985_LatLon0.15_PT039H.grib2 2026-04-11 04:20 1.1M
20260411T00Z_MSC_GDPS_RelativeHumidity_IsbL-1000_LatLon0.15_PT039H.grib2 2026-04-11 04:20 1.1M
20260411T00Z_MSC_GDPS_RelativeHumidity_IsbL-1015_LatLon0.15_PT039H.grib2 2026-04-11 04:20 1.0M
20260411T00Z_MSC_GDPS_RelativeVorticity_IsbL-0200_LatLon0.15_PT039H.grib2 2026-04-11 04:20 1.2M
20260411T00Z_MSC_GDPS_RelativeVorticity_IsbL-0250_LatLon0.15_PT039H.grib2 2026-04-11 04:20 1.3M
20260411T00Z_MSC_GDPS_RelativeVorticity_IsbL-0500_LatLon0.15_PT039H.grib2 2026-04-11 04:20 1.2M
20260411T00Z_MSC_GDPS_RelativeVorticity_IsbL-0700_LatLon0.15_PT039H.grib2 2026-04-11 04:20 1.3M
20260411T00Z_MSC_GDPS_RelativeVorticity_IsbL-0850_LatLon0.15_PT039H.grib2 2026-04-11 04:20 1.6M
20260411T00Z_MSC_GDPS_Runoff-Accum_Sfc_LatLon0.15_PT039H.grib2 2026-04-11 04:20 88K
20260411T00Z_MSC_GDPS_SensibleHeatNetFlux_Sfc_LatLon0.15_PT039H.grib2 2026-04-11 04:20 630K
20260411T00Z_MSC_GDPS_ShowalterIndex_IsbL-0500_LatLon0.15_PT039H.grib2 2026-04-11 04:20 6.2M
20260411T00Z_MSC_GDPS_Snow-Accum1h_Sfc_LatLon0.15_PT039H.grib2 2026-04-11 04:20 1.0M
20260411T00Z_MSC_GDPS_Snow-Accum3h_Sfc_LatLon0.15_PT039H.grib2 2026-04-11 04:20 1.0M
20260411T00Z_MSC_GDPS_Snow-Accum_Sfc_LatLon0.15_PT039H.grib2 2026-04-11 04:20 1.9M
20260411T00Z_MSC_GDPS_SnowDensity_Sfc_LatLon0.15_PT039H.grib2 2026-04-11 04:20 269K
20260411T00Z_MSC_GDPS_SnowDepth_Sfc_LatLon0.15_PT039H.grib2 2026-04-11 04:20 1.8M
20260411T00Z_MSC_GDPS_SoilTemp_DBS-0to10cm_LatLon0.15_PT039H.grib2 2026-04-11 04:20 500K
20260411T00Z_MSC_GDPS_SoilTemp_Sfc_LatLon0.15_PT039H.grib2 2026-04-11 04:20 583K
20260411T00Z_MSC_GDPS_SoilVolumetricIceContent_Sfc_LatLon0.15_PT039H.grib2 2026-04-11 04:20 230K
20260411T00Z_MSC_GDPS_SoilVolumetricWaterContent_DBS-0to10cm_LatLon0.15_PT039H.grib2 2026-04-11 04:20 550K
20260411T00Z_MSC_GDPS_SoilVolumetricWaterContent_DBS-0to1cm_LatLon0.15_PT039H.grib2 2026-04-11 04:20 650K
20260411T00Z_MSC_GDPS_SpecificHumidity_AGL-120m_LatLon0.15_PT039H.grib2 2026-04-11 04:20 1.1M
20260411T00Z_MSC_GDPS_SpecificHumidity_AGL-2m_LatLon0.15_PT039H.grib2 2026-04-11 04:20 1.2M
20260411T00Z_MSC_GDPS_SpecificHumidity_AGL-40m_LatLon0.15_PT039H.grib2 2026-04-11 04:20 1.1M
20260411T00Z_MSC_GDPS_SpecificHumidity_AGL-80m_LatLon0.15_PT039H.grib2 2026-04-11 04:20 1.1M
20260411T00Z_MSC_GDPS_SpecificHumidity_IsbL-0001_LatLon0.15_PT039H.grib2 2026-04-11 04:20 1.2M
20260411T00Z_MSC_GDPS_SpecificHumidity_IsbL-0005_LatLon0.15_PT039H.grib2 2026-04-11 04:20 1.2M
20260411T00Z_MSC_GDPS_SpecificHumidity_IsbL-0010_LatLon0.15_PT039H.grib2 2026-04-11 04:20 1.3M
20260411T00Z_MSC_GDPS_SpecificHumidity_IsbL-0020_LatLon0.15_PT039H.grib2 2026-04-11 04:20 1.4M
20260411T00Z_MSC_GDPS_SpecificHumidity_IsbL-0030_LatLon0.15_PT039H.grib2 2026-04-11 04:20 1.4M
20260411T00Z_MSC_GDPS_SpecificHumidity_IsbL-0050_LatLon0.15_PT039H.grib2 2026-04-11 04:20 1.4M
20260411T00Z_MSC_GDPS_SpecificHumidity_IsbL-0100_LatLon0.15_PT039H.grib2 2026-04-11 04:20 1.3M
20260411T00Z_MSC_GDPS_SpecificHumidity_IsbL-0150_LatLon0.15_PT039H.grib2 2026-04-11 04:20 1.3M
20260411T00Z_MSC_GDPS_SpecificHumidity_IsbL-0175_LatLon0.15_PT039H.grib2 2026-04-11 04:20 1.0M
20260411T00Z_MSC_GDPS_SpecificHumidity_IsbL-0200_LatLon0.15_PT039H.grib2 2026-04-11 04:20 1.1M
20260411T00Z_MSC_GDPS_SpecificHumidity_IsbL-0225_LatLon0.15_PT039H.grib2 2026-04-11 04:20 1.2M
20260411T00Z_MSC_GDPS_SpecificHumidity_IsbL-0250_LatLon0.15_PT039H.grib2 2026-04-11 04:20 1.2M
20260411T00Z_MSC_GDPS_SpecificHumidity_IsbL-0275_LatLon0.15_PT039H.grib2 2026-04-11 04:20 1.1M
20260411T00Z_MSC_GDPS_SpecificHumidity_IsbL-0300_LatLon0.15_PT039H.grib2 2026-04-11 04:20 1.2M
20260411T00Z_MSC_GDPS_SpecificHumidity_IsbL-0350_LatLon0.15_PT039H.grib2 2026-04-11 04:20 1.2M
20260411T00Z_MSC_GDPS_SpecificHumidity_IsbL-0400_LatLon0.15_PT039H.grib2 2026-04-11 04:20 1.4M
20260411T00Z_MSC_GDPS_SpecificHumidity_IsbL-0450_LatLon0.15_PT039H.grib2 2026-04-11 04:20 1.3M
20260411T00Z_MSC_GDPS_SpecificHumidity_IsbL-0500_LatLon0.15_PT039H.grib2 2026-04-11 04:20 1.5M
20260411T00Z_MSC_GDPS_SpecificHumidity_IsbL-0550_LatLon0.15_PT039H.grib2 2026-04-11 04:20 1.3M
20260411T00Z_MSC_GDPS_SpecificHumidity_IsbL-0600_LatLon0.15_PT039H.grib2 2026-04-11 04:20 1.4M
20260411T00Z_MSC_GDPS_SpecificHumidity_IsbL-0650_LatLon0.15_PT039H.grib2 2026-04-11 04:20 1.5M
20260411T00Z_MSC_GDPS_SpecificHumidity_IsbL-0700_LatLon0.15_PT039H.grib2 2026-04-11 04:20 1.6M
20260411T00Z_MSC_GDPS_SpecificHumidity_IsbL-0750_LatLon0.15_PT039H.grib2 2026-04-11 04:20 1.7M
20260411T00Z_MSC_GDPS_SpecificHumidity_IsbL-0800_LatLon0.15_PT039H.grib2 2026-04-11 04:20 1.8M
20260411T00Z_MSC_GDPS_SpecificHumidity_IsbL-0850_LatLon0.15_PT039H.grib2 2026-04-11 04:20 1.9M
20260411T00Z_MSC_GDPS_SpecificHumidity_IsbL-0875_LatLon0.15_PT039H.grib2 2026-04-11 04:20 1.9M
20260411T00Z_MSC_GDPS_SpecificHumidity_IsbL-0900_LatLon0.15_PT039H.grib2 2026-04-11 04:20 1.6M
20260411T00Z_MSC_GDPS_SpecificHumidity_IsbL-0925_LatLon0.15_PT039H.grib2 2026-04-11 04:20 1.6M
20260411T00Z_MSC_GDPS_SpecificHumidity_IsbL-0950_LatLon0.15_PT039H.grib2 2026-04-11 04:20 1.5M
20260411T00Z_MSC_GDPS_SpecificHumidity_IsbL-0970_LatLon0.15_PT039H.grib2 2026-04-11 04:20 1.5M
20260411T00Z_MSC_GDPS_SpecificHumidity_IsbL-0985_LatLon0.15_PT039H.grib2 2026-04-11 04:20 1.5M
20260411T00Z_MSC_GDPS_SpecificHumidity_IsbL-1000_LatLon0.15_PT039H.grib2 2026-04-11 04:20 1.5M
20260411T00Z_MSC_GDPS_SpecificHumidity_IsbL-1015_LatLon0.15_PT039H.grib2 2026-04-11 04:20 1.4M
20260411T00Z_MSC_GDPS_SpecificHumidity_Sfc_LatLon0.15_PT039H.grib2 2026-04-11 04:20 659K
20260411T00Z_MSC_GDPS_Thickness_IsbL-0850to0700_LatLon0.15_PT039H.grib2 2026-04-11 04:20 470K
20260411T00Z_MSC_GDPS_Thickness_IsbL-1000to0500_LatLon0.15_PT039H.grib2 2026-04-11 04:20 334K
20260411T00Z_MSC_GDPS_Thickness_IsbL-1000to0850_LatLon0.15_PT039H.grib2 2026-04-11 04:20 485K
20260411T00Z_MSC_GDPS_TotalCloudCover_Sfc_LatLon0.15_PT039H.grib2 2026-04-11 04:20 815K
20260411T00Z_MSC_GDPS_TotalTotalsIndex_Sfc_LatLon0.15_PT039H.grib2 2026-04-11 04:20 6.2M
20260411T00Z_MSC_GDPS_UVIndex-ClearSky_Sfc_LatLon0.15_PT039H.grib2 2026-04-11 05:06 1.0M
20260411T00Z_MSC_GDPS_UVIndex_Sfc_LatLon0.15_PT039H.grib2 2026-04-11 05:06 1.4M
20260411T00Z_MSC_GDPS_UpwardLongwaveRadiationFlux_NTAtm_LatLon0.15_PT039H.grib2 2026-04-11 04:20 818K
20260411T00Z_MSC_GDPS_VerticalVelocity_IsbL-0200_LatLon0.15_PT039H.grib2 2026-04-11 04:20 952K
20260411T00Z_MSC_GDPS_VerticalVelocity_IsbL-0250_LatLon0.15_PT039H.grib2 2026-04-11 04:20 1.0M
20260411T00Z_MSC_GDPS_VerticalVelocity_IsbL-0500_LatLon0.15_PT039H.grib2 2026-04-11 04:20 1.0M
20260411T00Z_MSC_GDPS_VerticalVelocity_IsbL-0600_LatLon0.15_PT039H.grib2 2026-04-11 04:20 1.1M
20260411T00Z_MSC_GDPS_VerticalVelocity_IsbL-0700_LatLon0.15_PT039H.grib2 2026-04-11 04:20 1.1M
20260411T00Z_MSC_GDPS_VerticalVelocity_IsbL-0850_LatLon0.15_PT039H.grib2 2026-04-11 04:20 1.6M
20260411T00Z_MSC_GDPS_WindChill_Sfc_LatLon0.15_PT039H.grib2 2026-04-11 04:20 5.4M
20260411T00Z_MSC_GDPS_WindDir_AGL-10m_LatLon0.15_PT039H.grib2 2026-04-11 04:20 1.3M
20260411T00Z_MSC_GDPS_WindDir_AGL-120m_LatLon0.15_PT039H.grib2 2026-04-11 04:20 1.3M
20260411T00Z_MSC_GDPS_WindDir_AGL-40m_LatLon0.15_PT039H.grib2 2026-04-11 04:20 1.4M
20260411T00Z_MSC_GDPS_WindDir_AGL-80m_LatLon0.15_PT039H.grib2 2026-04-11 04:20 1.4M
20260411T00Z_MSC_GDPS_WindDir_IsbL-0001_LatLon0.15_PT039H.grib2 2026-04-11 04:20 625K
20260411T00Z_MSC_GDPS_WindDir_IsbL-0005_LatLon0.15_PT039H.grib2 2026-04-11 04:20 777K
20260411T00Z_MSC_GDPS_WindDir_IsbL-0010_LatLon0.15_PT039H.grib2 2026-04-11 04:20 866K
20260411T00Z_MSC_GDPS_WindDir_IsbL-0020_LatLon0.15_PT039H.grib2 2026-04-11 04:20 949K
20260411T00Z_MSC_GDPS_WindDir_IsbL-0030_LatLon0.15_PT039H.grib2 2026-04-11 04:20 892K
20260411T00Z_MSC_GDPS_WindDir_IsbL-0050_LatLon0.15_PT039H.grib2 2026-04-11 04:20 954K
20260411T00Z_MSC_GDPS_WindDir_IsbL-0100_LatLon0.15_PT039H.grib2 2026-04-11 04:20 1.0M
20260411T00Z_MSC_GDPS_WindDir_IsbL-0150_LatLon0.15_PT039H.grib2 2026-04-11 04:20 1.0M
20260411T00Z_MSC_GDPS_WindDir_IsbL-0175_LatLon0.15_PT039H.grib2 2026-04-11 04:20 1.0M
20260411T00Z_MSC_GDPS_WindDir_IsbL-0200_LatLon0.15_PT039H.grib2 2026-04-11 04:20 1.1M
20260411T00Z_MSC_GDPS_WindDir_IsbL-0225_LatLon0.15_PT039H.grib2 2026-04-11 04:20 1.1M
20260411T00Z_MSC_GDPS_WindDir_IsbL-0250_LatLon0.15_PT039H.grib2 2026-04-11 04:20 1.1M
20260411T00Z_MSC_GDPS_WindDir_IsbL-0275_LatLon0.15_PT039H.grib2 2026-04-11 04:20 1.1M
20260411T00Z_MSC_GDPS_WindDir_IsbL-0300_LatLon0.15_PT039H.grib2 2026-04-11 04:20 1.2M
20260411T00Z_MSC_GDPS_WindDir_IsbL-0350_LatLon0.15_PT039H.grib2 2026-04-11 04:20 1.2M
20260411T00Z_MSC_GDPS_WindDir_IsbL-0400_LatLon0.15_PT039H.grib2 2026-04-11 04:20 1.3M
20260411T00Z_MSC_GDPS_WindDir_IsbL-0450_LatLon0.15_PT039H.grib2 2026-04-11 04:20 1.3M
20260411T00Z_MSC_GDPS_WindDir_IsbL-0500_LatLon0.15_PT039H.grib2 2026-04-11 04:20 1.3M
20260411T00Z_MSC_GDPS_WindDir_IsbL-0550_LatLon0.15_PT039H.grib2 2026-04-11 04:20 1.4M
20260411T00Z_MSC_GDPS_WindDir_IsbL-0600_LatLon0.15_PT039H.grib2 2026-04-11 04:20 1.4M
20260411T00Z_MSC_GDPS_WindDir_IsbL-0650_LatLon0.15_PT039H.grib2 2026-04-11 04:20 1.5M
20260411T00Z_MSC_GDPS_WindDir_IsbL-0700_LatLon0.15_PT039H.grib2 2026-04-11 04:20 1.6M
20260411T00Z_MSC_GDPS_WindDir_IsbL-0750_LatLon0.15_PT039H.grib2 2026-04-11 04:20 1.7M
20260411T00Z_MSC_GDPS_WindDir_IsbL-0800_LatLon0.15_PT039H.grib2 2026-04-11 04:20 1.8M
20260411T00Z_MSC_GDPS_WindDir_IsbL-0850_LatLon0.15_PT039H.grib2 2026-04-11 04:20 1.9M
20260411T00Z_MSC_GDPS_WindDir_IsbL-0875_LatLon0.15_PT039H.grib2 2026-04-11 04:20 1.9M
20260411T00Z_MSC_GDPS_WindDir_IsbL-0900_LatLon0.15_PT039H.grib2 2026-04-11 04:20 2.0M
20260411T00Z_MSC_GDPS_WindDir_IsbL-0925_LatLon0.15_PT039H.grib2 2026-04-11 04:20 2.0M
20260411T00Z_MSC_GDPS_WindDir_IsbL-0950_LatLon0.15_PT039H.grib2 2026-04-11 04:20 2.0M
20260411T00Z_MSC_GDPS_WindDir_IsbL-0970_LatLon0.15_PT039H.grib2 2026-04-11 04:20 2.0M
20260411T00Z_MSC_GDPS_WindDir_IsbL-0985_LatLon0.15_PT039H.grib2 2026-04-11 04:20 2.0M
20260411T00Z_MSC_GDPS_WindDir_IsbL-1000_LatLon0.15_PT039H.grib2 2026-04-11 04:20 2.1M
20260411T00Z_MSC_GDPS_WindDir_IsbL-1015_LatLon0.15_PT039H.grib2 2026-04-11 04:20 2.0M
20260411T00Z_MSC_GDPS_WindGust-Max_AGL-10m_LatLon0.15_PT039H.grib2 2026-04-11 04:20 2.2M
20260411T00Z_MSC_GDPS_WindGust-Min_AGL-10m_LatLon0.15_PT039H.grib2 2026-04-11 04:20 2.1M
20260411T00Z_MSC_GDPS_WindGust_AGL-10m_LatLon0.15_PT039H.grib2 2026-04-11 04:20 2.1M
20260411T00Z_MSC_GDPS_WindSpeed_AGL-10m_LatLon0.15_PT039H.grib2 2026-04-11 04:20 1.1M
20260411T00Z_MSC_GDPS_WindSpeed_AGL-120m_LatLon0.15_PT039H.grib2 2026-04-11 04:20 1.2M
20260411T00Z_MSC_GDPS_WindSpeed_AGL-40m_LatLon0.15_PT039H.grib2 2026-04-11 04:20 1.2M
20260411T00Z_MSC_GDPS_WindSpeed_AGL-80m_LatLon0.15_PT039H.grib2 2026-04-11 04:20 1.2M
20260411T00Z_MSC_GDPS_WindSpeed_IsbL-0001_LatLon0.15_PT039H.grib2 2026-04-11 04:20 634K
20260411T00Z_MSC_GDPS_WindSpeed_IsbL-0005_LatLon0.15_PT039H.grib2 2026-04-11 04:20 608K
20260411T00Z_MSC_GDPS_WindSpeed_IsbL-0010_LatLon0.15_PT039H.grib2 2026-04-11 04:20 634K
20260411T00Z_MSC_GDPS_WindSpeed_IsbL-0020_LatLon0.15_PT039H.grib2 2026-04-11 04:20 879K
20260411T00Z_MSC_GDPS_WindSpeed_IsbL-0030_LatLon0.15_PT039H.grib2 2026-04-11 04:20 864K
20260411T00Z_MSC_GDPS_WindSpeed_IsbL-0050_LatLon0.15_PT039H.grib2 2026-04-11 04:20 916K
20260411T00Z_MSC_GDPS_WindSpeed_IsbL-0100_LatLon0.15_PT039H.grib2 2026-04-11 04:20 1.1M
20260411T00Z_MSC_GDPS_WindSpeed_IsbL-0150_LatLon0.15_PT039H.grib2 2026-04-11 04:20 941K
20260411T00Z_MSC_GDPS_WindSpeed_IsbL-0175_LatLon0.15_PT039H.grib2 2026-04-11 04:20 1.0M
20260411T00Z_MSC_GDPS_WindSpeed_IsbL-0200_LatLon0.15_PT039H.grib2 2026-04-11 04:20 1.1M
20260411T00Z_MSC_GDPS_WindSpeed_IsbL-0225_LatLon0.15_PT039H.grib2 2026-04-11 04:20 865K
20260411T00Z_MSC_GDPS_WindSpeed_IsbL-0250_LatLon0.15_PT039H.grib2 2026-04-11 04:20 1.1M
20260411T00Z_MSC_GDPS_WindSpeed_IsbL-0275_LatLon0.15_PT039H.grib2 2026-04-11 04:20 1.1M
20260411T00Z_MSC_GDPS_WindSpeed_IsbL-0300_LatLon0.15_PT039H.grib2 2026-04-11 04:20 1.1M
20260411T00Z_MSC_GDPS_WindSpeed_IsbL-0350_LatLon0.15_PT039H.grib2 2026-04-11 04:20 1.1M
20260411T00Z_MSC_GDPS_WindSpeed_IsbL-0400_LatLon0.15_PT039H.grib2 2026-04-11 04:20 1.1M
20260411T00Z_MSC_GDPS_WindSpeed_IsbL-0450_LatLon0.15_PT039H.grib2 2026-04-11 04:20 1.1M
20260411T00Z_MSC_GDPS_WindSpeed_IsbL-0500_LatLon0.15_PT039H.grib2 2026-04-11 04:20 1.1M
20260411T00Z_MSC_GDPS_WindSpeed_IsbL-0550_LatLon0.15_PT039H.grib2 2026-04-11 04:20 1.1M
20260411T00Z_MSC_GDPS_WindSpeed_IsbL-0600_LatLon0.15_PT039H.grib2 2026-04-11 04:20 1.1M
20260411T00Z_MSC_GDPS_WindSpeed_IsbL-0650_LatLon0.15_PT039H.grib2 2026-04-11 04:20 1.2M
20260411T00Z_MSC_GDPS_WindSpeed_IsbL-0700_LatLon0.15_PT039H.grib2 2026-04-11 04:20 1.5M
20260411T00Z_MSC_GDPS_WindSpeed_IsbL-0750_LatLon0.15_PT039H.grib2 2026-04-11 04:20 1.6M
20260411T00Z_MSC_GDPS_WindSpeed_IsbL-0800_LatLon0.15_PT039H.grib2 2026-04-11 04:20 1.6M
20260411T00Z_MSC_GDPS_WindSpeed_IsbL-0850_LatLon0.15_PT039H.grib2 2026-04-11 04:20 1.7M
20260411T00Z_MSC_GDPS_WindSpeed_IsbL-0875_LatLon0.15_PT039H.grib2 2026-04-11 04:20 1.8M
20260411T00Z_MSC_GDPS_WindSpeed_IsbL-0900_LatLon0.15_PT039H.grib2 2026-04-11 04:20 1.8M
20260411T00Z_MSC_GDPS_WindSpeed_IsbL-0925_LatLon0.15_PT039H.grib2 2026-04-11 04:20 1.8M
20260411T00Z_MSC_GDPS_WindSpeed_IsbL-0950_LatLon0.15_PT039H.grib2 2026-04-11 04:20 1.9M
20260411T00Z_MSC_GDPS_WindSpeed_IsbL-0970_LatLon0.15_PT039H.grib2 2026-04-11 04:20 1.9M
20260411T00Z_MSC_GDPS_WindSpeed_IsbL-0985_LatLon0.15_PT039H.grib2 2026-04-11 04:20 1.9M
20260411T00Z_MSC_GDPS_WindSpeed_IsbL-1000_LatLon0.15_PT039H.grib2 2026-04-11 04:20 1.9M
20260411T00Z_MSC_GDPS_WindSpeed_IsbL-1015_LatLon0.15_PT039H.grib2 2026-04-11 04:20 1.8M
20260411T00Z_MSC_GDPS_WindU_AGL-10m_LatLon0.15_PT039H.grib2 2026-04-11 04:20 1.3M
20260411T00Z_MSC_GDPS_WindU_AGL-120m_LatLon0.15_PT039H.grib2 2026-04-11 04:20 1.0M
20260411T00Z_MSC_GDPS_WindU_AGL-40m_LatLon0.15_PT039H.grib2 2026-04-11 04:20 963K
20260411T00Z_MSC_GDPS_WindU_AGL-80m_LatLon0.15_PT039H.grib2 2026-04-11 04:20 1.0M
20260411T00Z_MSC_GDPS_WindU_IsbL-0001_LatLon0.15_PT039H.grib2 2026-04-11 04:20 636K
20260411T00Z_MSC_GDPS_WindU_IsbL-0005_LatLon0.15_PT039H.grib2 2026-04-11 04:20 689K
20260411T00Z_MSC_GDPS_WindU_IsbL-0010_LatLon0.15_PT039H.grib2 2026-04-11 04:20 706K
20260411T00Z_MSC_GDPS_WindU_IsbL-0020_LatLon0.15_PT039H.grib2 2026-04-11 04:20 748K
20260411T00Z_MSC_GDPS_WindU_IsbL-0030_LatLon0.15_PT039H.grib2 2026-04-11 04:20 741K
20260411T00Z_MSC_GDPS_WindU_IsbL-0050_LatLon0.15_PT039H.grib2 2026-04-11 04:20 707K
20260411T00Z_MSC_GDPS_WindU_IsbL-0100_LatLon0.15_PT039H.grib2 2026-04-11 04:20 932K
20260411T00Z_MSC_GDPS_WindU_IsbL-0150_LatLon0.15_PT039H.grib2 2026-04-11 04:20 1.0M
20260411T00Z_MSC_GDPS_WindU_IsbL-0175_LatLon0.15_PT039H.grib2 2026-04-11 04:20 815K
20260411T00Z_MSC_GDPS_WindU_IsbL-0200_LatLon0.15_PT039H.grib2 2026-04-11 04:20 845K
20260411T00Z_MSC_GDPS_WindU_IsbL-0225_LatLon0.15_PT039H.grib2 2026-04-11 04:20 915K
20260411T00Z_MSC_GDPS_WindU_IsbL-0250_LatLon0.15_PT039H.grib2 2026-04-11 04:20 917K
20260411T00Z_MSC_GDPS_WindU_IsbL-0275_LatLon0.15_PT039H.grib2 2026-04-11 04:20 885K
20260411T00Z_MSC_GDPS_WindU_IsbL-0300_LatLon0.15_PT039H.grib2 2026-04-11 04:20 876K
20260411T00Z_MSC_GDPS_WindU_IsbL-0350_LatLon0.15_PT039H.grib2 2026-04-11 04:20 893K
20260411T00Z_MSC_GDPS_WindU_IsbL-0400_LatLon0.15_PT039H.grib2 2026-04-11 04:20 894K
20260411T00Z_MSC_GDPS_WindU_IsbL-0450_LatLon0.15_PT039H.grib2 2026-04-11 04:20 895K
20260411T00Z_MSC_GDPS_WindU_IsbL-0500_LatLon0.15_PT039H.grib2 2026-04-11 04:20 1.1M
20260411T00Z_MSC_GDPS_WindU_IsbL-0550_LatLon0.15_PT039H.grib2 2026-04-11 04:20 1.1M
20260411T00Z_MSC_GDPS_WindU_IsbL-0600_LatLon0.15_PT039H.grib2 2026-04-11 04:20 1.1M
20260411T00Z_MSC_GDPS_WindU_IsbL-0650_LatLon0.15_PT039H.grib2 2026-04-11 04:20 1.2M
20260411T00Z_MSC_GDPS_WindU_IsbL-0700_LatLon0.15_PT039H.grib2 2026-04-11 04:20 1.2M
20260411T00Z_MSC_GDPS_WindU_IsbL-0750_LatLon0.15_PT039H.grib2 2026-04-11 04:20 1.3M
20260411T00Z_MSC_GDPS_WindU_IsbL-0800_LatLon0.15_PT039H.grib2 2026-04-11 04:20 1.3M
20260411T00Z_MSC_GDPS_WindU_IsbL-0850_LatLon0.15_PT039H.grib2 2026-04-11 04:20 1.4M
20260411T00Z_MSC_GDPS_WindU_IsbL-0875_LatLon0.15_PT039H.grib2 2026-04-11 04:20 1.4M
20260411T00Z_MSC_GDPS_WindU_IsbL-0900_LatLon0.15_PT039H.grib2 2026-04-11 04:20 1.5M
20260411T00Z_MSC_GDPS_WindU_IsbL-0925_LatLon0.15_PT039H.grib2 2026-04-11 04:20 1.5M
20260411T00Z_MSC_GDPS_WindU_IsbL-0950_LatLon0.15_PT039H.grib2 2026-04-11 04:20 1.4M
20260411T00Z_MSC_GDPS_WindU_IsbL-0970_LatLon0.15_PT039H.grib2 2026-04-11 04:20 1.4M
20260411T00Z_MSC_GDPS_WindU_IsbL-0985_LatLon0.15_PT039H.grib2 2026-04-11 04:20 1.4M
20260411T00Z_MSC_GDPS_WindU_IsbL-1000_LatLon0.15_PT039H.grib2 2026-04-11 04:20 1.4M
20260411T00Z_MSC_GDPS_WindU_IsbL-1015_LatLon0.15_PT039H.grib2 2026-04-11 04:20 1.3M
20260411T00Z_MSC_GDPS_WindV_AGL-10m_LatLon0.15_PT039H.grib2 2026-04-11 04:20 1.3M
20260411T00Z_MSC_GDPS_WindV_AGL-120m_LatLon0.15_PT039H.grib2 2026-04-11 04:20 966K
20260411T00Z_MSC_GDPS_WindV_AGL-40m_LatLon0.15_PT039H.grib2 2026-04-11 04:20 962K
20260411T00Z_MSC_GDPS_WindV_AGL-80m_LatLon0.15_PT039H.grib2 2026-04-11 04:20 966K
20260411T00Z_MSC_GDPS_WindV_IsbL-0001_LatLon0.15_PT039H.grib2 2026-04-11 04:20 545K
20260411T00Z_MSC_GDPS_WindV_IsbL-0005_LatLon0.15_PT039H.grib2 2026-04-11 04:20 777K
20260411T00Z_MSC_GDPS_WindV_IsbL-0010_LatLon0.15_PT039H.grib2 2026-04-11 04:20 809K
20260411T00Z_MSC_GDPS_WindV_IsbL-0020_LatLon0.15_PT039H.grib2 2026-04-11 04:20 948K
20260411T00Z_MSC_GDPS_WindV_IsbL-0030_LatLon0.15_PT039H.grib2 2026-04-11 04:20 861K
20260411T00Z_MSC_GDPS_WindV_IsbL-0050_LatLon0.15_PT039H.grib2 2026-04-11 04:20 914K
20260411T00Z_MSC_GDPS_WindV_IsbL-0100_LatLon0.15_PT039H.grib2 2026-04-11 04:20 1.1M
20260411T00Z_MSC_GDPS_WindV_IsbL-0150_LatLon0.15_PT039H.grib2 2026-04-11 04:20 1.0M
20260411T00Z_MSC_GDPS_WindV_IsbL-0175_LatLon0.15_PT039H.grib2 2026-04-11 04:20 1.0M
20260411T00Z_MSC_GDPS_WindV_IsbL-0200_LatLon0.15_PT039H.grib2 2026-04-11 04:20 847K
20260411T00Z_MSC_GDPS_WindV_IsbL-0225_LatLon0.15_PT039H.grib2 2026-04-11 04:20 915K
20260411T00Z_MSC_GDPS_WindV_IsbL-0250_LatLon0.15_PT039H.grib2 2026-04-11 04:20 916K
20260411T00Z_MSC_GDPS_WindV_IsbL-0275_LatLon0.15_PT039H.grib2 2026-04-11 04:20 939K
20260411T00Z_MSC_GDPS_WindV_IsbL-0300_LatLon0.15_PT039H.grib2 2026-04-11 04:20 929K
20260411T00Z_MSC_GDPS_WindV_IsbL-0350_LatLon0.15_PT039H.grib2 2026-04-11 04:20 885K
20260411T00Z_MSC_GDPS_WindV_IsbL-0400_LatLon0.15_PT039H.grib2 2026-04-11 04:20 885K
20260411T00Z_MSC_GDPS_WindV_IsbL-0450_LatLon0.15_PT039H.grib2 2026-04-11 04:20 1.1M
20260411T00Z_MSC_GDPS_WindV_IsbL-0500_LatLon0.15_PT039H.grib2 2026-04-11 04:20 1.1M
20260411T00Z_MSC_GDPS_WindV_IsbL-0550_LatLon0.15_PT039H.grib2 2026-04-11 04:20 1.1M
20260411T00Z_MSC_GDPS_WindV_IsbL-0600_LatLon0.15_PT039H.grib2 2026-04-11 04:20 1.1M
20260411T00Z_MSC_GDPS_WindV_IsbL-0650_LatLon0.15_PT039H.grib2 2026-04-11 04:20 1.2M
20260411T00Z_MSC_GDPS_WindV_IsbL-0700_LatLon0.15_PT039H.grib2 2026-04-11 04:20 1.2M
20260411T00Z_MSC_GDPS_WindV_IsbL-0750_LatLon0.15_PT039H.grib2 2026-04-11 04:20 1.3M
20260411T00Z_MSC_GDPS_WindV_IsbL-0800_LatLon0.15_PT039H.grib2 2026-04-11 04:20 1.3M
20260411T00Z_MSC_GDPS_WindV_IsbL-0850_LatLon0.15_PT039H.grib2 2026-04-11 04:20 1.4M
20260411T00Z_MSC_GDPS_WindV_IsbL-0875_LatLon0.15_PT039H.grib2 2026-04-11 04:20 1.4M
20260411T00Z_MSC_GDPS_WindV_IsbL-0900_LatLon0.15_PT039H.grib2 2026-04-11 04:20 1.4M
20260411T00Z_MSC_GDPS_WindV_IsbL-0925_LatLon0.15_PT039H.grib2 2026-04-11 04:20 1.4M
20260411T00Z_MSC_GDPS_WindV_IsbL-0950_LatLon0.15_PT039H.grib2 2026-04-11 04:20 1.4M
20260411T00Z_MSC_GDPS_WindV_IsbL-0970_LatLon0.15_PT039H.grib2 2026-04-11 04:20 1.4M
20260411T00Z_MSC_GDPS_WindV_IsbL-0985_LatLon0.15_PT039H.grib2 2026-04-11 04:20 1.4M
20260411T00Z_MSC_GDPS_WindV_IsbL-1000_LatLon0.15_PT039H.grib2 2026-04-11 04:20 1.4M
20260411T00Z_MSC_GDPS_WindV_IsbL-1015_LatLon0.15_PT039H.grib2 2026-04-11 04:20 1.3M